Home > Time Zones > World Clock > Weather > China > Wuhan > Past weeks

Flag for China Weather past 2 weeks in Wuhan, Hubei, China

Now
68 °F

Clear.


Feels Like: 68 °F
Forecast: 65 / 81 °F
Wind: 6 mph from Northeast

Location: Wuhan Airport

Current Time: Sep 22, 2014 at 2:48:29 AM

Latest Report: Sep 22, 2014 at 2:00 AM


Visibility: 10 mi

Pressure: 29.95 "Hg

Humidity: 88%

Dew point: 64 °F

Location of WuhanLocation

Historic Weather in Wuhan — Graph

°F

Wuhan temperature yesterday

Maximum temperature yesterday: 86 °F (at 2:00 PM)
Minimum temperature yesterday: 66 °F (at 2:00 AM)
Average temperature yesterday: 75 °F

Past Weeks' High & Low Weather Summary

 TemperatureHumidityPressure
High91 °F (Sep 7, 1:00 PM)100% (Sep 8, 5:00 AM)30.07 "Hg (Sep 8, 5:00 AM)
Low63 °F (Sep 18, 7:00 AM)46% (Sep 21, 3:00 PM)29.68 "Hg (Sep 8, 2:00 PM)
Average75 °F88%29.85 "Hg
* Reported Sep 7 1:00 AM — Sep 22 1:00 AM, Wuhan, Weather by CustomWeather, © 2014

Note: Actual official high and low records may vary slightly from our data, if they occured in-between our weather recording intervals... More about our weather records

Advertising

Wuhan weather history for previous 24 hours

 ConditionsComfort  
Time TempWeatherWind HumidityBarometerVisibility
1:00 AM
Sep 22
68 °FClear.6 mph88%29.95 "Hg10 mi
12:00 AM70 °FClear.6 mph88%29.98 "Hg10 mi
11:00 PM
Sep 21
70 °FClear.8 mph88%29.95 "Hg10 mi
10:00 PM72 °FClear.10 mph83%29.95 "Hg10 mi
9:00 PM73 °FClear.10 mph78%29.92 "Hg10 mi
8:00 PM75 °FClear.6 mph74%29.92 "Hg10 mi
7:00 PM79 °FClear.8 mph65%29.89 "Hg10 mi
6:00 PM81 °FPassing clouds.3 mph62%29.86 "HgN/A
5:00 PM86 °FPassing clouds.6 mph49%29.86 "HgN/A
4:00 PM86 °FSunny.8 mph46%29.86 "Hg10 mi
3:00 PM86 °FPassing clouds.8 mph46%29.86 "HgN/A
2:00 PM86 °FPassing clouds.8 mph49%29.89 "HgN/A
1:00 PM84 °FPassing clouds.3 mph58%29.89 "HgN/A
12:00 PM82 °FPassing clouds.6 mph62%29.92 "HgN/A
11:00 AM81 °FPassing clouds.6 mph70%29.95 "HgN/A
10:00 AM79 °FPassing clouds.3 mph74%29.95 "HgN/A
9:00 AM75 °FPassing clouds.6 mph83%29.95 "HgN/A
8:00 AM72 °FSunny.6 mph88%29.92 "Hg10 mi
7:00 AM66 °FPassing clouds.3 mph100%29.92 "HgN/A
6:00 AM66 °FClear.3 mph94%29.92 "Hg10 mi
5:00 AM66 °FPassing clouds.3 mph100%29.89 "HgN/A
4:00 AM66 °FClear.3 mph100%29.89 "Hg10 mi
3:00 AM66 °FClear.1 mph100%29.89 "Hg10 mi
2:00 AM66 °FClear.1 mph100%29.89 "Hg10 mi
Weather by CustomWeather, © 2014

See weather overviewHow to use our weather pages